Home > Weather > Bridgeport > Past weeks

Flag for USA Past Weather in Bridgeport, Connecticut, USA — Yesterday and Last 2 Weeks

Now
74 °F

Thunderstorms. Partly sunny.


Feels Like: 73 °F
Forecast: 73 / 89 °F
Wind: 18 mph from North

Location: Sikorsky Memorial Airport

Current Time: Jul 25, 2016 at 8:51:41 PM

Latest Report: Jul 25, 2016 at 7:52 PM


Visibility: 3 mi

Pressure: 29.86 "Hg

Humidity: 85%

Dew Point: 69 °F

Location of BridgeportLocation

Past Weather in Bridgeport — Graph

°F

Bridgeport Temperature Yesterday

Maximum temperature yesterday: 87 °F (at 3:52 PM)
Minimum temperature yesterday: 73 °F (at 5:52 AM)
Average temperature yesterday: 80 °F

High & Low Weather Summary for the Past Weeks

 TemperatureHumidityPressure
High96 °F (Jul 23, 2:52 PM)94% (Jul 15, 4:01 AM)30.24 "Hg (Jul 15, 4:01 AM)
Low64 °F (Jul 12, 5:52 AM)25% (Jul 23, 4:52 PM)29.76 "Hg (Jul 23, 5:52 PM)
Average79 °F65%30.00 "Hg
* Reported Jul 10 6:52 PM — Jul 25 6:52 PM, Bridgeport, Weather by CustomWeather, © 2016

Note: Actual official high and low records may vary slightly from our data, if they occured in-between our weather recording intervals... More about our weather records

Advertising

Bridgeport Weather History for the Previous 24 Hours

Scroll right to see more
 ConditionsComfort  
Time TempWeatherWind HumidityBarometerVisibility
6:52 PM
Mon, Jul 25
77 °FThundershowers. Passing clouds.13 mph88%29.87 "Hg10 mi
5:52 PM78 °FSunny.5 mph76%29.82 "Hg10 mi
4:52 PM78 °FPassing clouds.8 mph79%29.83 "Hg10 mi
3:58 PM75 °FStrong thunderstorms. Fog.13 mph88%29.89 "Hg1 mi
3:52 PM76 °FStrong thunderstorms. Mostly cloudy.17 mph82%29.90 "Hg1 mi
2:52 PM87 °FSunny.9 mph57%29.87 "Hg10 mi
1:52 PM86 °FSunny.10 mph61%29.89 "Hg10 mi
12:52 PM85 °FSunny.9 mph63%29.89 "Hg10 mi
11:52 AM84 °FSunny.10 mph65%29.91 "Hg10 mi
10:52 AM84 °FSunny.15 mph67%29.93 "Hg10 mi
9:52 AM81 °FScattered clouds.9 mph67%29.92 "Hg10 mi
8:52 AM78 °FOvercast.5 mph69%29.93 "Hg10 mi
7:52 AM78 °FPartly sunny.3 mph71%29.94 "Hg10 mi
6:52 AM76 °FPartly sunny.No wind82%29.95 "Hg10 mi
5:52 AM75 °FPassing clouds.No wind85%29.94 "Hg10 mi
4:52 AM76 °FClear.No wind80%29.94 "Hg10 mi
3:52 AM75 °FClear.5 mph82%29.93 "Hg10 mi
2:52 AM75 °FClear.No wind82%29.94 "Hg10 mi
1:52 AM76 °FClear.No wind82%29.95 "Hg10 mi
12:52 AM76 °FClear.6 mph82%29.96 "Hg10 mi
11:52 PM
Sun, Jul 24
77 °FClear.6 mph79%29.98 "Hg10 mi
10:52 PM78 °FClear.6 mph76%29.98 "Hg10 mi
9:52 PM79 °FClear.5 mph69%29.98 "Hg10 mi
8:52 PM80 °FSunny.8 mph64%29.96 "Hg10 mi
Weather by CustomWeather, © 2016

See weather overviewHow to use our weather pages